Météo par heure à Alihe

Ce jour, 29 Octobre, Jeudi

Heure Température Précipitation Vent Pression Humidité
00:00 -3°C° 0 mm 1 m/s 722 mmHg 70%
01:00 -4°C° 0 mm 1 m/s 722 mmHg 70%
02:00 -4°C° 0 mm 1 m/s 723 mmHg 69%
03:00 -4°C° 0 mm 1 m/s 723 mmHg 70%
04:00 -4°C° 0 mm 1 m/s 723 mmHg 70%
05:00 -4°C° 0 mm 1 m/s 723 mmHg 70%
06:00 -4°C° 0 mm 1 m/s 724 mmHg 67%
07:00 -3°C° 0 mm 1 m/s 724 mmHg 64%
08:00 -3°C° 0 mm 1 m/s 724 mmHg 62%
09:00 -1°C° 0 mm 1 m/s 724 mmHg 54%
10:00 +1°C° 0 mm 1 m/s 724 mmHg 47%
11:00 +3°C° 0 mm 1 m/s 724 mmHg 39%
12:00 +3°C° 0 mm 1 m/s 724 mmHg 38%
13:00 +4°C° 0 mm 1 m/s 723 mmHg 37%
14:00 +4°C° 0 mm 1 m/s 723 mmHg 37%
15:00 +1°C° 0 mm 0 m/s 723 mmHg 42%
16:00 0°C° 0 mm 0 m/s 723 mmHg 47%
17:00 -2°C° 0 mm 0 m/s 724 mmHg 53%
18:00 -2°C° 0 mm 0 m/s 723 mmHg 54%
19:00 -2°C° 0 mm 0 m/s 723 mmHg 55%
20:00 -2°C° 0 mm 0 m/s 723 mmHg 56%
21:00 -1°C° 0 mm 1 m/s 723 mmHg 56%
22:00 -1°C° 0 mm 1 m/s 723 mmHg 56%
23:00 -1°C° 0 mm 1 m/s 723 mmHg 56%

Demain, 30 Octobre, Vendredi

Heure Température Précipitation Vent Pression Humidité
00:00 -2°C° 0 mm 1 m/s 723 mmHg 57%
01:00 -2°C° 0 mm 1 m/s 722 mmHg 57%
02:00 -2°C° 0 mm 1 m/s 722 mmHg 58%
03:00 -2°C° 0 mm 1 m/s 722 mmHg 59%
04:00 -2°C° 0 mm 1 m/s 721 mmHg 60%
05:00 -3°C° 0 mm 1 m/s 721 mmHg 61%
06:00 -2°C° 0 mm 1 m/s 721 mmHg 60%
07:00 -2°C° 0 mm 1 m/s 720 mmHg 59%
08:00 -1°C° 0 mm 1 m/s 720 mmHg 57%
09:00 0°C° 0 mm 1 m/s 720 mmHg 54%
10:00 +1°C° 0 mm 1 m/s 719 mmHg 50%
11:00 +2°C° 0 mm 2 m/s 718 mmHg 46%
12:00 +3°C° 0 mm 1 m/s 718 mmHg 47%
13:00 +3°C° 0 mm 1 m/s 718 mmHg 47%
14:00 +4°C° 0 mm 1 m/s 717 mmHg 48%
15:00 +2°C° 0 mm 1 m/s 717 mmHg 53%
16:00 +1°C° 0 mm 1 m/s 717 mmHg 59%
17:00 -1°C° 0 mm 0 m/s 717 mmHg 64%
18:00 -1°C° 0 mm 0 m/s 717 mmHg 65%
19:00 -1°C° 0 mm 0 m/s 717 mmHg 65%
20:00 -1°C° 0 mm 0 m/s 717 mmHg 65%
21:00 -1°C° 0 mm 0 m/s 716 mmHg 66%
22:00 -1°C° 0 mm 0 m/s 716 mmHg 66%
23:00 -1°C° 0 mm 0 m/s 715 mmHg 67%

Après-demain, 31 Octobre, Samedi

Heure Température Précipitation Vent Pression Humidité
00:00 -1°C° 0 mm 0 m/s 715 mmHg 67%
01:00 -1°C° 0 mm 0 m/s 715 mmHg 67%
02:00 0°C° 0 mm 1 m/s 714 mmHg 68%
03:00 0°C° 0 mm 1 m/s 714 mmHg 69%
04:00 0°C° 0 mm 1 m/s 713 mmHg 70%
05:00 -3°C° 0 mm 2 m/s 713 mmHg 71%
06:00 -2°C° 0 mm 2 m/s 712 mmHg 72%
07:00 -2°C° 0 mm 3 m/s 712 mmHg 73%
08:00 -2°C° 0 mm 3 m/s 712 mmHg 75%
09:00 -2°C° 0 mm 3 m/s 711 mmHg 74%
10:00 -2°C° 0 mm 3 m/s 711 mmHg 73%
11:00 -2°C° 0 mm 4 m/s 710 mmHg 73%
12:00 -2°C° 0.2 mm 3 m/s 710 mmHg 78%
13:00 -2°C° 0.2 mm 3 m/s 710 mmHg 84%
14:00 -2°C° 0.2 mm 3 m/s 709 mmHg 89%
15:00 -2°C° 0.8 mm 3 m/s 709 mmHg 91%
16:00 -4°C° 0.8 mm 3 m/s 709 mmHg 92%
17:00 -4°C° 0.8 mm 3 m/s 709 mmHg 94%
18:00 -4°C° 0.4 mm 3 m/s 709 mmHg 94%
19:00 -5°C° 0.4 mm 3 m/s 709 mmHg 93%
20:00 -5°C° 0.4 mm 3 m/s 709 mmHg 92%
21:00 -5°C° 0.2 mm 3 m/s 709 mmHg 92%
22:00 -5°C° 0.2 mm 3 m/s 709 mmHg 91%
23:00 -5°C° 0.2 mm 3 m/s 709 mmHg 90%

1 Novembre, Dimanche

Heure Température Précipitation Vent Pression Humidité
00:00 -5°C° 0.1 mm 3 m/s 709 mmHg 88%
01:00 -5°C° 0.1 mm 3 m/s 710 mmHg 86%
02:00 -6°C° 0.1 mm 3 m/s 710 mmHg 84%
03:00 -6°C° 0 mm 3 m/s 710 mmHg 83%
04:00 -6°C° 0 mm 3 m/s 710 mmHg 83%
05:00 -7°C° 0 mm 4 m/s 710 mmHg 82%
06:00 -7°C° 0 mm 4 m/s 710 mmHg 79%
07:00 -7°C° 0 mm 4 m/s 710 mmHg 77%
08:00 -7°C° 0 mm 4 m/s 711 mmHg 74%
09:00 -5°C° 0 mm 4 m/s 711 mmHg 72%
10:00 -4°C° 0 mm 4 m/s 711 mmHg 71%
11:00 -4°C° 0 mm 4 m/s 711 mmHg 69%
12:00 -4°C° 0 mm 4 m/s 711 mmHg 73%
13:00 -4°C° 0 mm 4 m/s 711 mmHg 76%
14:00 -4°C° 0 mm 4 m/s 711 mmHg 79%
15:00 -5°C° 0.1 mm 4 m/s 711 mmHg 80%
16:00 -7°C° 0.1 mm 4 m/s 712 mmHg 81%
17:00 -7°C° 0.1 mm 4 m/s 712 mmHg 83%
18:00 -7°C° 0 mm 3 m/s 712 mmHg 81%
19:00 -7°C° 0 mm 3 m/s 712 mmHg 80%
20:00 -8°C° 0 mm 3 m/s 712 mmHg 78%
21:00 -8°C° 0.1 mm 3 m/s 713 mmHg 80%
22:00 -9°C° 0.1 mm 3 m/s 713 mmHg 82%
23:00 -9°C° 0.1 mm 3 m/s 713 mmHg 84%

2 Novembre, Lundi

Heure Température Précipitation Vent Pression Humidité
00:00 -11°C° 0.1 mm 4 m/s 713 mmHg 83%
01:00 -11°C° 0.1 mm 4 m/s 713 mmHg 83%
02:00 -12°C° 0.1 mm 4 m/s 713 mmHg 83%
03:00 -12°C° 0.1 mm 4 m/s 713 mmHg 84%
04:00 -14°C° 0.1 mm 4 m/s 713 mmHg 84%
05:00 -14°C° 0.1 mm 4 m/s 713 mmHg 85%
06:00 -14°C° 0.1 mm 4 m/s 713 mmHg 83%
07:00 -14°C° 0.1 mm 4 m/s 713 mmHg 82%
08:00 -14°C° 0.1 mm 4 m/s 713 mmHg 80%
09:00 -14°C° 0.1 mm 4 m/s 714 mmHg 79%
10:00 -14°C° 0.1 mm 4 m/s 714 mmHg 77%
11:00 -12°C° 0.1 mm 4 m/s 714 mmHg 75%
12:00 -12°C° 0.1 mm 4 m/s 714 mmHg 75%
13:00 -12°C° 0.1 mm 4 m/s 714 mmHg 76%
14:00 -12°C° 0.1 mm 4 m/s 714 mmHg 77%
15:00 -14°C° 0 mm 4 m/s 714 mmHg 78%
16:00 -14°C° 0 mm 4 m/s 714 mmHg 80%
17:00 -14°C° 0 mm 4 m/s 715 mmHg 81%
18:00 -14°C° 0 mm 4 m/s 715 mmHg 79%
19:00 -15°C° 0 mm 4 m/s 715 mmHg 77%
20:00 -15°C° 0 mm 4 m/s 715 mmHg 74%
21:00 -14°C° 0 mm 3 m/s 715 mmHg 74%
22:00 -14°C° 0 mm 3 m/s 715 mmHg 74%
23:00 -14°C° 0 mm 3 m/s 715 mmHg 74%

3 Novembre, Mardi

Heure Température Précipitation Vent Pression Humidité
00:00 -14°C° 0 mm 3 m/s 716 mmHg 75%
01:00 -14°C° 0 mm 2 m/s 716 mmHg 76%
02:00 -14°C° 0 mm 2 m/s 716 mmHg 78%
03:00 -14°C° 0 mm 2 m/s 716 mmHg 78%
04:00 -14°C° 0 mm 2 m/s 716 mmHg 77%
05:00 -14°C° 0 mm 2 m/s 716 mmHg 77%
06:00 -14°C° 0 mm 2 m/s 717 mmHg 76%
07:00 -14°C° 0 mm 2 m/s 717 mmHg 74%
08:00 -13°C° 0 mm 2 m/s 717 mmHg 73%
09:00 -12°C° 0 mm 2 m/s 717 mmHg 69%
10:00 -10°C° 0 mm 2 m/s 717 mmHg 66%
11:00 -9°C° 0 mm 3 m/s 717 mmHg 62%
12:00 -8°C° 0 mm 3 m/s 717 mmHg 62%
13:00 -8°C° 0 mm 3 m/s 717 mmHg 62%
14:00 -7°C° 0 mm 3 m/s 716 mmHg 62%
15:00 -8°C° 0 mm 3 m/s 716 mmHg 67%
16:00 -9°C° 0 mm 3 m/s 716 mmHg 72%
17:00 -10°C° 0 mm 3 m/s 717 mmHg 77%
18:00 -9°C° 0 mm 2 m/s 716 mmHg 79%
19:00 -10°C° 0 mm 2 m/s 716 mmHg 80%
20:00 -10°C° 0 mm 1 m/s 716 mmHg 82%
21:00 -10°C° 0 mm 1 m/s 716 mmHg 81%
22:00 -10°C° 0 mm 1 m/s 716 mmHg 80%
23:00 -11°C° 0 mm 1 m/s 716 mmHg 79%
Voir plus

Nous avons besoin de votre consentement

Meteoprog et ses fournisseurs de services peuvent stocker et accéder à des données personnelles telles que des cookies, des identifiants d'appareils ou d'autres technologies similaires sur votre appareil et traiter ces données pour personnaliser le contenu et les publicités, ainsi que pour fournir des fonctionnalités de médias sociaux et analyser le trafic.

  • Stocker et/ou accéder à des informations sur votre appareil

    Des cookies, des identifiants d'appareils ou d'autres informations peuvent être stockés ou accessibles sur votre appareil aux fins indiquées ci-dessus.

  • Annonces et contenus personnalisés, mesure des annonces et des contenus, connaissance de l'audience et développement de produits

    Les annonces et le contenu peuvent être personnalisés en fonction d'un profil. D'autres données peuvent être ajoutées pour mieux personnaliser les annonces et le contenu. Les performances des publicités et du contenu peuvent être mesurées. Il est possible d'obtenir des informations sur le public qui a vu les publicités et le contenu. Ces données peuvent être utilisées pour développer ou améliorer l'expérience de l'utilisateur, les systèmes et les logiciels.

En cliquant sur "J'accepte", vous autorisez l'utilisation de cookies, des identifiants d'appareils, des balises web ou d'autres technologies similaires. Vos paramètres peuvent être modifiés dans le navigateur de votre appareil.

Dans certains cas, des intérêts légitimes peuvent être invoqués plutôt qu'un consentement. Vous pouvez en savoir plus à ce sujet dans notre Politique de confidentialité et de cookies.